Flag for Austria Weather past 2 weeks in Bruck an der Mur, Styria, Austria

Now
54 °F

Rain. More clouds than sun.


Feels Like: 53 °F
Forecast: 51 / 69 °F
Wind: 3 mph from North

Location: Zeltweg

Current Time: Sep 2, 2014 at 3:07:23 PM

Latest Report: Sep 2, 2014 at 2:20 PM


Visibility: 6 mi

Pressure: 30.07 "Hg

Humidity: 88%

Dew point: 50 °F

Location of Bruck an der MurLocation

Historic Weather in Bruck an der Mur — Graph

°F

Bruck an der Mur temperature yesterday

Maximum temperature yesterday: 57 °F (at 4:50 PM)
Minimum temperature yesterday: 48 °F (at 4:50 AM)
Average temperature yesterday: 52 °F

Past Weeks' High & Low Weather Summary

 TemperatureHumidityPressure
High77 °F (Aug 29, 3:20 PM)100% (Aug 19, 6:50 AM)30.18 "Hg (Aug 19, 6:50 AM)
Low43 °F (Aug 28, 4:50 AM)36% (Aug 27, 1:20 PM)29.80 "Hg (Aug 26, 1:50 PM)
Average60 °F75%30.02 "Hg
* Reported Aug 18 1:20 PM — Sep 2 1:20 PM, Bruck an der Mur, Weather by CustomWeather, © 2014

Note: Actual official high and low records may vary slightly from our data, if they occured in-between our weather recording intervals... More about our weather records

Advertising

Bruck an der Mur weather history for previous 24 hours

 ConditionsComfort  
Time TempWeatherWind HumidityBarometerVisibility
1:20 PM
Sep 2
54 °FRain. More clouds than sun.3 mph94%30.07 "Hg6 mi
12:50 PM52 °FRain. More clouds than sun.2 mph100%30.07 "Hg6 mi
12:20 PM52 °FRain. More clouds than sun.3 mph100%30.07 "Hg6 mi
11:50 AM52 °FRain. More clouds than sun.2 mph94%30.07 "Hg6 mi
11:20 AM52 °FRain. More clouds than sun.1 mph94%30.07 "Hg6 mi
10:50 AM52 °FLight rain. More clouds than sun.1 mph94%30.07 "Hg6 mi
10:20 AM52 °FLight rain. More clouds than sun.2 mph94%30.07 "Hg6 mi
9:50 AM52 °FRain. More clouds than sun.1 mph94%30.07 "Hg9 mi
9:20 AM52 °FLight rain. More clouds than sun.1 mph94%30.04 "Hg9 mi
8:50 AM52 °FLight rain. More clouds than sun.2 mph94%30.04 "Hg9 mi
8:20 AM52 °FLight rain. More clouds than sun.2 mph88%30.04 "Hg9 mi
7:50 AM52 °FPartly sunny.2 mph94%30.04 "Hg12 mi
7:20 AM52 °FPartly sunny.1 mph88%30.04 "Hg12 mi
6:50 AM52 °FPassing clouds.2 mph88%30.04 "Hg12 mi
5:50 AM52 °FPassing clouds.5 mph94%30.01 "Hg12 mi
4:50 AM52 °FLight rain. Passing clouds.3 mph94%30.01 "Hg12 mi
10:50 PM
Sep 1
52 °FPassing clouds.3 mph94%30.04 "Hg12 mi
9:50 PM54 °FPassing clouds.1 mph94%30.04 "Hg12 mi
8:50 PM54 °FPassing clouds.2 mph94%30.04 "Hg12 mi
7:50 PM54 °FPartly sunny.1 mph94%30.01 "Hg16 mi
6:50 PM55 °FPartly sunny.1 mph88%30.01 "Hg16 mi
6:20 PM55 °FPartly sunny.5 mph82%30.01 "Hg16 mi
5:50 PM55 °FPartly sunny.3 mph82%30.01 "Hg16 mi
5:20 PM57 °FBroken clouds.3 mph77%29.98 "Hg12 mi
4:50 PM57 °FBroken clouds.1 mph77%29.98 "Hg12 mi
4:20 PM55 °FLight rain. Broken clouds.2 mph77%29.98 "Hg12 mi
3:50 PM55 °FLight rain. Broken clouds.1 mph82%29.98 "Hg12 mi
3:20 PM55 °FLight rain. Broken clouds.2 mph77%29.98 "Hg12 mi
Weather by CustomWeather, © 2014

See weather overviewHow to use our weather pages